Flag for United Arab Emirates Weather past 2 weeks in Dubai, Dubai, United Arab Emirates

Now
99 °F

Passing clouds.


Feels Like: 104 °F
Forecast: 94 / 103 °F
Wind: 7 mph from Northeast

Location: Dubai International Airport

Current Time: Aug 28, 2014 at 8:08:20 PM

Latest Report: Aug 28, 2014 at 7:00 PM


Visibility: N/A

Pressure: 29.53 "Hg

Humidity: 37%

Dew point: 68 °F

Location of DubaiLocation

Historic Weather in Dubai — Graph

°F

Dubai temperature yesterday

Maximum temperature yesterday: 104 °F (at 12:00 PM)
Minimum temperature yesterday: 88 °F (at 6:00 AM)
Average temperature yesterday: 94 °F

Past Weeks' High & Low Weather Summary

 TemperatureHumidityPressure
High115 °F (Aug 17, 2:00 PM)89% (Aug 22, 6:00 AM)29.77 "Hg (Aug 22, 6:00 AM)
Low88 °F (Aug 14, 6:00 AM)15% (Aug 17, 7:00 PM)29.39 "Hg (Aug 16, 5:00 PM)
Average97 °F50%29.58 "Hg
* Reported Aug 13 7:00 PM — Aug 28 7:00 PM, Dubai, Weather by CustomWeather, © 2014

Note: Actual official high and low records may vary slightly from our data, if they occured in-between our weather recording intervals... More about our weather records

Advertising

Dubai weather history for previous 24 hours

 ConditionsComfort  
Time TempWeatherWind HumidityBarometerVisibility
7:00 PM
Aug 28
99 °FPassing clouds.7 mph37%29.53 "HgN/A
6:00 PM99 °FPassing clouds.7 mph39%29.53 "HgN/A
5:00 PM99 °FSunny.13 mph39%29.53 "Hg10 mi
4:00 PM100 °FPassing clouds.16 mph35%29.53 "HgN/A
3:00 PM102 °FSunny.17 mph29%29.56 "Hg10 mi
2:00 PM104 °FSunny.18 mph24%29.56 "Hg10 mi
1:00 PM104 °FSunny.15 mph24%29.59 "Hg10 mi
12:00 PM106 °FPassing clouds.9 mph25%29.59 "HgN/A
11:00 AM104 °FPassing clouds.12 mph26%29.62 "HgN/A
10:00 AM100 °FPassing clouds.12 mph27%29.62 "HgN/A
9:00 AM97 °FPassing clouds.10 mph32%29.62 "HgN/A
8:00 AM91 °FPassing clouds.7 mph59%29.59 "HgN/A
7:00 AM90 °FSunny.8 mph75%29.59 "Hg10 mi
6:00 AM90 °FClear.7 mph75%29.59 "Hg4 mi
5:00 AM90 °FClear.7 mph79%29.56 "Hg5 mi
4:00 AM90 °FPassing clouds.8 mph79%29.56 "HgN/A
3:00 AM91 °FPassing clouds.8 mph75%29.53 "HgN/A
2:00 AM90 °FClear.3 mph79%29.53 "Hg10 mi
1:00 AM91 °FPassing clouds.5 mph59%29.53 "HgN/A
12:00 AM93 °FClear.7 mph49%29.53 "Hg10 mi
11:00 PM
Aug 27
95 °FClear.5 mph53%29.56 "Hg10 mi
10:00 PM93 °FClear.2 mph56%29.56 "Hg10 mi
9:00 PM93 °FClear.2 mph59%29.56 "Hg10 mi
8:00 PM93 °FPassing clouds.3 mph59%29.56 "HgN/A
Weather by CustomWeather, © 2014

See weather overviewHow to use our weather pages